Wind_Speed
20 21 22 22 21 22 23 23 23 23 23 22 20 19 19 19 19 19 19 18 18 18 18 18 18 18 18 18 18 17 17 16 16 16 15 14 14 14 14 14 13 13 12 12
21 22 22 22 22 22 23 24 24 24 23 22 22 22 20 20 20 20 20 19 19 19 19 19 19 19 19 19 19 19 18 18 18 17 16 16 15 15 15 14 14 14 14 13
22 23 23 23 22 23 24 24 24 25 24 23 22 23 22 21 21 21 21 20 20 20 20 19 19 20 21 20 20 20 20 19 19 19 18 18 17 16 16 16 16 15 15 15
23 24 25 24 23 23 24 24 25 25 24 24 23 23 23 23 23 23 22 22 22 21 21 21 21 21 21 22 21 22 21 20 20 20 20 19 19 18 18 17 17 16 16 16
23 24 25 25 24 24 25 25 25 25 25 24 23 23 24 24 24 24 24 24 24 23 22 22 22 23 23 23 23 22 22 22 22 22 21 20 20 19 19 19 18 18 18 17
24 24 25 24 25 24 25 26 25 25 25 24 23 24 24 24 24 24 25 25 24 24 24 23 23 23 23 24 23 23 23 23 23 23 22 21 21 21 21 21 20 20 20 19
25 25 25 24 25 24 25 25 25 25 25 25 25 25 25 25 25 25 25 26 25 25 25 24 24 24 24 25 24 23 23 23 23 23 24 23 23 23 23 23 23 22 22 22
25 25 25 25 25 25 25 24 25 25 25 25 24 25 25 25 25 25 25 26 25 25 25 25 25 25 25 25 26 25 24 24 24 25 26 26 25 25 25 24 24 24 24 24
24 25 26 26 25 25 24 24 24 25 25 25 25 25 25 26 25 25 25 25 25 25 25 25 25 25 25 26 27 27 26 26 26 26 25 26 26 26 26 26 26 26 26 25
25 26 27 27 26 25 25 25 25 26 26 26 25 25 25 25 26 25 25 25 25 26 26 25 26 26 26 26 26 27 27 27 28 28 27 26 27 27 27 26 26 26 26 26
26 26 27 26 26 26 26 26 26 26 26 26 26 26 26 26 27 27 27 27 27 26 26 26 26 26 26 26 26 27 27 28 28 28 28 28 28 28 28 27 27 27 27 27
26 26 27 25 25 26 26 26 27 26 26 27 27 27 27 28 28 29 28 28 28 28 27 27 26 26 25 25 26 26 27 27 28 28 28 28 29 28 28 28 28 28 28 28
27 27 27 26 26 26 27 27 27 26 26 27 27 27 27 27 27 28 29 29 29 29 28 28 27 26 26 26 26 26 26 27 27 28 28 28 29 28 28 28 29 29 30 30
27 28 28 28 27 27 27 26 26 26 27 27 27 27 27 27 27 28 27 28 29 29 29 29 28 27 27 27 27 26 26 26 27 27 27 28 28 28 29 29 29 30 30 31
27 28 28 27 27 27 26 26 26 26 27 27 27 27 27 27 27 28 28 28 28 28 29 29 29 29 28 28 28 27 27 27 28 28 27 28 28 29 30 30 31 31 31 31
26 26 27 27 26 26 26 26 26 26 27 27 27 27 28 28 28 28 28 28 29 28 29 29 29 29 29 29 28 28 28 28 28 28 28 28 29 30 30 31 31 31 31 31
26 26 26 26 26 26 26 26 26 27 27 27 27 27 28 28 28 29 29 29 29 30 30 30 30 30 30 30 30 29 29 29 29 29 29 29 30 30 31 31 31 31 31 31
26 26 26 26 26 26 27 27 27 27 28 28 27 27 28 28 28 29 29 29 29 30 30 30 31 31 31 31 30 30 29 29 29 29 29 30 31 31 31 31 31 31 31 32
27 27 27 27 27 28 28 28 28 28 28 28 28 28 28 29 29 29 29 29 29 29 29 30 31 31 31 31 31 30 30 30 30 30 30 31 31 31 31 31 32 32 32 33
26 27 27 27 27 28 28 28 28 28 28 28 29 29 29 29 30 30 30 29 29 29 29 31 31 31 31 32 32 32 31 31 31 32 32 32 32 32 32 32 32 33 33 33
25 26 26 27 27 27 28 28 28 28 28 28 29 29 29 30 30 30 30 29 29 30 30 31 32 31 31 31 32 32 32 32 33 33 33 33 33 33 33 33 33 33 34 34
25 25 26 27 27 27 27 27 27 27 28 27 28 28 28 29 29 29 29 29 29 30 30 31 31 31 32 32 32 32 33 33 34 34 34 34 34 34 34 34 33 33 33 34
24 24 25 25 25 26 26 25 25 26 27 27 27 27 27 27 28 28 29 29 29 30 30 30 31 31 32 32 32 33 33 33 34 34 34 34 34 33 33 33 33 33 33 34
24 24 23 24 24 25 25 24 24 25 25 25 26 26 26 27 27 28 28 28 28 29 29 30 31 31 32 32 32 32 32 32 33 33 33 33 33 33 32 32 32 33 33 34
25 25 24 23 24 24 24 24 23 23 23 24 24 25 25 26 26 27 27 27 27 27 28 29 30 31 31 32 32 31 31 31 31 31 31 31 31 32 32 32 32 33 33 33
25 25 25 24 24 24 23 23 23 23 23 24 24 24 25 25 25 25 25 25 25 26 26 27 28 28 29 30 30 30 31 31 31 31 31 30 31 31 32 33 33 33 33 33
25 24 24 24 24 24 24 24 24 23 24 24 25 25 25 25 25 25 25 25 25 26 26 26 26 27 28 28 29 29 30 31 31 31 30 30 30 31 31 32 32 32 32 32
Wind_Direction
269 267 266 266 265 263 262 264 266 267 266 264 264 266 265 261 260 258 259 261 263 263 265 265 265 264 265 264 266 268 267 267 267 268 268 266 266 267 267 266 266 267 271 271
268 268 267 266 265 264 264 264 264 266 267 265 263 263 263 261 260 259 259 260 262 262 265 266 265 264 264 263 264 265 266 266 264 263 264 265 266 266 266 265 266 266 268 270
269 267 268 267 266 265 265 265 264 265 267 266 264 263 263 262 262 259 258 259 261 261 262 264 265 264 263 263 263 264 265 264 262 261 261 262 263 264 264 264 265 264 266 268
269 267 267 269 268 267 266 265 265 266 266 265 263 261 260 260 261 260 258 258 260 262 263 263 263 264 263 263 263 264 263 262 260 259 259 262 262 262 262 263 262 263 265 268
268 269 269 269 269 269 268 267 267 268 266 263 262 260 259 259 261 262 259 258 259 261 263 264 264 263 264 263 263 262 262 261 260 258 259 260 262 263 262 262 262 263 265 269
268 268 270 270 269 268 268 267 267 268 265 262 259 259 259 260 262 261 259 259 259 261 263 264 265 264 264 264 263 261 261 260 259 259 259 260 262 262 262 262 262 264 266 268
268 269 270 272 271 269 268 268 266 266 264 262 260 259 259 259 260 260 259 259 260 261 263 263 265 265 265 264 264 261 260 260 258 259 259 260 261 260 261 262 263 263 265 268
268 270 273 272 272 271 268 266 265 263 262 261 261 259 258 258 259 260 259 259 260 261 262 262 263 263 263 263 262 262 260 259 259 259 259 260 261 260 261 261 263 264 265 267
269 271 273 272 272 271 268 266 264 262 262 264 263 260 260 259 259 259 259 259 260 261 261 261 262 262 262 263 263 263 263 261 261 262 262 260 260 262 262 262 263 264 265 267
271 272 272 274 274 273 271 268 265 265 265 266 264 262 261 259 258 259 260 260 260 261 262 262 262 263 263 263 264 264 264 263 262 263 261 260 260 262 262 263 265 266 267 269
272 273 273 273 273 272 271 268 267 267 267 266 265 264 261 259 259 260 261 260 259 260 261 261 261 263 264 265 265 264 264 264 264 264 262 262 262 263 263 265 267 268 269 269
275 275 274 274 273 272 271 269 267 267 266 266 265 263 261 260 260 260 260 259 259 259 260 260 260 261 263 264 264 265 264 265 265 265 264 264 263 263 264 265 266 268 269 270
276 274 273 273 274 273 271 270 268 268 268 266 266 264 262 260 261 261 261 259 259 258 258 259 259 261 262 263 264 264 265 266 266 266 265 264 263 264 265 266 267 268 269 270
276 276 273 272 272 273 272 271 270 269 269 268 268 266 264 262 261 261 261 259 259 258 257 258 259 261 263 263 263 263 264 265 266 267 266 265 264 264 266 267 268 269 269 271
277 276 275 272 271 271 270 270 269 268 268 268 268 266 264 263 263 262 261 259 260 260 259 259 260 261 263 263 264 264 264 265 266 266 266 265 265 267 268 269 269 269 270 271
277 277 276 273 271 270 268 268 268 268 268 268 267 265 264 263 263 263 263 262 262 261 260 261 261 261 262 263 263 264 265 265 265 265 266 267 267 269 270 272 271 270 271 272
277 277 276 274 272 271 269 268 267 268 268 268 266 264 263 263 263 264 264 264 263 263 262 263 262 261 261 261 262 264 265 265 265 265 266 267 268 269 270 271 272 271 271 272
276 276 276 274 273 272 272 270 269 269 269 268 266 264 263 264 264 264 264 263 262 262 262 263 262 261 261 262 263 264 264 265 265 266 267 268 269 270 270 270 271 272 272 272
278 278 276 275 274 273 273 273 272 272 271 269 267 266 265 265 264 264 264 263 263 263 263 263 263 263 262 262 264 264 266 266 266 266 267 268 269 269 270 271 272 273 273 273
278 277 275 274 274 273 272 272 272 271 269 268 267 266 265 265 265 264 263 262 264 264 264 264 264 264 264 264 264 265 265 266 267 267 268 269 269 270 270 271 272 273 273 273
279 278 275 274 274 273 272 272 271 270 269 267 266 265 264 264 264 264 264 263 264 265 265 265 265 264 265 265 265 265 265 267 268 268 268 269 270 271 272 272 272 273 273 273
279 279 278 276 275 274 272 271 270 268 267 267 265 264 263 264 264 264 264 265 265 265 266 266 266 265 266 266 266 266 267 268 268 268 269 270 270 271 272 272 272 273 273 274
282 282 281 279 277 274 273 272 271 269 267 265 264 263 263 265 267 267 265 266 267 266 265 266 266 267 267 267 267 267 268 268 269 269 270 271 271 272 272 272 272 273 273 273
280 281 282 281 279 277 276 274 271 270 269 265 264 263 264 265 267 269 268 268 268 267 266 267 267 267 269 270 269 270 269 269 269 270 270 271 271 271 271 272 272 273 274 274
280 281 281 281 280 278 277 275 273 271 270 267 266 267 267 268 269 270 270 270 269 269 269 269 269 269 270 270 271 271 271 270 269 270 270 270 270 270 271 271 272 273 275 275
280 280 280 281 280 279 277 275 272 271 270 268 267 268 269 270 271 272 271 271 272 272 273 273 273 273 272 271 270 270 270 269 268 270 270 270 270 271 272 272 273 274 275 276
279 279 279 278 278 277 276 275 273 272 272 270 270 270 270 270 271 271 272 272 273 274 274 274 274 274 273 272 271 271 270 270 270 270 270 270 270 272 273 274 275 276 277 278
Height
5806 5806 5805 5806 5806 5806 5806 5807 5807 5808 5808 5809 5809 5809 5809 5810 5810 5811 5812 5812 5813 5813 5814 5814 5814 5814 5814 5814 5814 5814 5814 5814 5814 5814 5814 5814 5814 5814 5814 5813 5813 5813 5813 5812
5799 5799 5798 5799 5799 5799 5800 5800 5800 5800 5801 5802 5802 5803 5803 5803 5804 5805 5805 5806 5807 5807 5808 5808 5808 5808 5809 5809 5809 5809 5809 5809 5809 5809 5809 5809 5809 5809 5809 5809 5809 5809 5809 5809
5792 5792 5791 5792 5793 5793 5793 5793 5793 5794 5795 5795 5795 5796 5796 5797 5797 5798 5799 5800 5800 5801 5801 5802 5802 5802 5803 5803 5803 5803 5803 5803 5803 5804 5804 5804 5804 5804 5804 5804 5805 5805 5805 5804
5785 5786 5785 5788 5786 5786 5785 5786 5786 5786 5787 5788 5788 5789 5789 5790 5790 5791 5792 5793 5793 5794 5795 5795 5795 5796 5796 5796 5797 5797 5797 5797 5797 5798 5798 5799 5799 5799 5799 5799 5799 5800 5800 5800
5778 5777 5777 5779 5778 5778 5777 5778 5778 5779 5779 5780 5780 5781 5782 5782 5783 5784 5784 5785 5786 5787 5788 5788 5788 5789 5789 5789 5790 5790 5790 5791 5791 5791 5792 5792 5793 5793 5793 5794 5794 5794 5794 5794
5770 5770 5770 5772 5771 5770 5770 5770 5771 5771 5771 5772 5773 5774 5775 5775 5775 5776 5777 5778 5779 5779 5780 5781 5781 5781 5781 5782 5782 5783 5783 5784 5784 5785 5785 5786 5786 5787 5787 5788 5788 5788 5789 5789
5763 5762 5762 5764 5762 5763 5764 5764 5763 5763 5763 5764 5764 5766 5767 5767 5767 5768 5769 5770 5771 5772 5773 5773 5774 5774 5774 5774 5775 5775 5776 5776 5777 5778 5778 5779 5779 5780 5780 5781 5781 5782 5782 5782
5755 5755 5757 5755 5754 5755 5755 5754 5754 5754 5755 5755 5756 5757 5758 5758 5759 5760 5761 5762 5763 5764 5765 5765 5766 5766 5766 5767 5767 5767 5768 5768 5769 5770 5770 5771 5772 5772 5773 5773 5774 5774 5775 5775
5749 5750 5748 5747 5746 5746 5746 5747 5747 5747 5747 5748 5748 5749 5749 5750 5751 5752 5753 5753 5754 5755 5756 5757 5757 5758 5758 5758 5758 5759 5759 5760 5760 5761 5761 5762 5763 5764 5765 5765 5765 5766 5767 5767
5741 5741 5740 5739 5738 5738 5738 5738 5739 5739 5739 5739 5740 5740 5741 5742 5742 5743 5744 5745 5746 5747 5747 5748 5749 5749 5750 5750 5750 5750 5750 5751 5751 5752 5752 5753 5755 5756 5756 5757 5757 5758 5758 5758
5733 5733 5731 5731 5731 5730 5730 5730 5731 5731 5731 5731 5731 5732 5732 5733 5734 5735 5735 5736 5737 5738 5739 5740 5740 5741 5741 5741 5741 5742 5742 5742 5742 5743 5743 5744 5745 5746 5747 5748 5748 5749 5749 5749
5725 5724 5723 5723 5723 5722 5722 5722 5722 5722 5723 5723 5723 5723 5723 5724 5725 5725 5726 5727 5728 5729 5730 5731 5731 5732 5732 5733 5733 5733 5733 5733 5733 5734 5734 5735 5736 5737 5738 5739 5739 5739 5740 5740
5717 5715 5715 5715 5714 5714 5713 5714 5714 5714 5714 5714 5714 5714 5714 5715 5715 5716 5716 5717 5718 5719 5721 5722 5722 5723 5724 5724 5724 5724 5724 5724 5724 5725 5725 5726 5727 5728 5729 5729 5730 5730 5730 5730
5708 5707 5706 5706 5706 5705 5705 5705 5705 5705 5705 5705 5705 5705 5705 5705 5706 5706 5707 5708 5709 5710 5711 5712 5713 5714 5715 5715 5715 5715 5715 5715 5716 5716 5716 5717 5718 5719 5719 5720 5720 5720 5721 5720
5700 5698 5698 5697 5697 5697 5696 5696 5696 5697 5697 5697 5696 5696 5696 5696 5697 5697 5698 5698 5699 5700 5702 5703 5704 5705 5705 5706 5706 5706 5707 5707 5707 5708 5708 5708 5709 5709 5710 5710 5710 5711 5711 5711
5691 5689 5689 5688 5688 5688 5688 5688 5688 5688 5688 5688 5688 5688 5688 5688 5688 5688 5689 5689 5690 5691 5693 5694 5694 5695 5696 5696 5697 5697 5698 5698 5698 5699 5699 5699 5700 5700 5700 5700 5700 5700 5700 5700
5682 5681 5680 5680 5680 5679 5679 5679 5679 5679 5679 5679 5679 5679 5679 5679 5680 5680 5680 5681 5681 5682 5683 5684 5684 5685 5686 5687 5687 5688 5688 5689 5689 5689 5689 5690 5690 5690 5690 5690 5690 5690 5690 5690
5673 5672 5672 5671 5671 5670 5670 5670 5670 5670 5670 5670 5670 5670 5670 5671 5671 5671 5671 5671 5672 5672 5673 5674 5674 5675 5676 5677 5677 5678 5678 5679 5680 5680 5680 5680 5680 5680 5680 5679 5679 5679 5679 5679
5665 5664 5663 5662 5661 5661 5661 5661 5661 5661 5661 5661 5661 5661 5661 5662 5662 5662 5662 5662 5662 5663 5664 5664 5664 5665 5666 5667 5667 5667 5668 5669 5669 5670 5670 5670 5669 5669 5669 5669 5669 5668 5668 5668
5656 5655 5654 5653 5652 5652 5652 5652 5651 5651 5651 5651 5651 5652 5652 5653 5653 5653 5653 5653 5653 5654 5654 5654 5654 5655 5656 5656 5656 5657 5657 5658 5658 5659 5659 5659 5659 5659 5658 5658 5657 5657 5657 5656
5647 5646 5645 5644 5643 5643 5643 5642 5642 5642 5642 5641 5641 5642 5642 5643 5643 5643 5643 5644 5644 5644 5644 5644 5644 5645 5645 5646 5646 5646 5646 5647 5647 5647 5647 5647 5647 5647 5647 5646 5646 5645 5645 5644
5638 5637 5636 5634 5633 5633 5633 5632 5632 5632 5632 5632 5632 5632 5633 5633 5634 5634 5634 5634 5635 5634 5634 5634 5634 5635 5635 5635 5635 5635 5635 5635 5635 5635 5636 5636 5635 5635 5635 5634 5634 5633 5633 5632
5630 5628 5627 5625 5624 5623 5623 5623 5622 5622 5622 5622 5623 5623 5623 5624 5624 5624 5624 5625 5624 5624 5624 5624 5624 5624 5624 5624 5624 5624 5624 5624 5624 5624 5624 5624 5623 5623 5622 5622 5622 5621 5621 5620
5621 5620 5619 5617 5616 5615 5614 5614 5614 5613 5613 5613 5613 5614 5614 5614 5615 5614 5614 5614 5614 5614 5613 5613 5613 5613 5613 5613 5613 5612 5612 5612 5612 5612 5612 5612 5611 5611 5610 5610 5609 5609 5608 5608
5613 5612 5611 5609 5608 5607 5606 5606 5605 5605 5605 5605 5605 5605 5605 5605 5605 5605 5605 5605 5604 5604 5603 5603 5603 5602 5602 5601 5601 5601 5600 5600 5600 5600 5600 5600 5599 5599 5599 5598 5597 5597 5596 5595
5605 5604 5603 5602 5600 5599 5598 5598 5597 5597 5597 5597 5597 5597 5596 5596 5596 5596 5595 5595 5595 5594 5594 5593 5592 5592 5591 5591 5590 5590 5589 5589 5589 5589 5588 5588 5588 5587 5587 5586 5586 5585 5584 5584
5596 5595 5594 5593 5592 5591 5590 5590 5589 5589 5588 5588 5588 5588 5588 5587 5587 5587 5586 5586 5585 5585 5584 5583 5583 5582 5581 5580 5580 5579 5579 5578 5578 5578 5577 5577 5577 5576 5576 5575 5574 5574 5573 5572